FW6650 Weather Reports


time (UTC)temp
C
wind
direction
speed
KPH
gust
KPH
rain 1hr
cm
rain 24hr
cm
rain mn
cm
humidity
%
barometer
mb
20260508063527 18 213 4.8 17.7 0.00 0.00 0.00 40 1018.1
20260508063036 18 260 9.7 17.7 0.00 0.00 0.00 39 1018.1
20260508062527 18 227 8.0 14.5 0.00 0.00 0.00 39 1018.1
20260508062026 18 264 8.0 14.5 0.00 0.00 0.00 39 1018.0
20260508061547 18 253 6.4 14.5 0.00 0.00 0.00 40 1018.0
20260508061026 18 259 6.4 14.5 0.00 0.00 0.00 42 1017.8
20260508060527 18 238 4.8 11.3 0.00 0.00 0.00 47 1017.8
20260508060042 18 196 3.2 6.4 0.00 0.00 0.00 50 1017.6
20260508055527 18 0 0.0 3.2 0.00 0.00 0.00 51 1017.3
20260508055027 18 0 0.0 3.2 0.00 0.00 0.00 52 1017.1
20260508054603 18 0 0.0 4.8 0.00 0.00 0.00 52 1017.0
20260508054026 18 0 0.0 4.8 0.00 0.00 0.00 51 1016.8
20260508053526 18 120 0.0 3.2 0.00 0.00 0.00 52 1016.8
20260508053033 18 120 0.0 3.2 0.00 0.00 0.00 50 1016.7
20260508052526 18 0 0.0 3.2 0.00 0.00 0.00 52 1016.5
20260508052026 18 120 0.0 3.2 0.00 0.00 0.00 51 1016.5
20260508051535 18 0 0.0 0.0 0.00 0.00 0.00 51 1016.3
20260508051026 18 0 0.0 1.6 0.00 0.00 0.00 52 1016.3
20260508050527 17 0 0.0 4.8 0.00 0.00 0.00 52 1016.3
20260508050037 17 120 0.0 4.8 0.00 0.00 0.00 51 1016.2
20260508045526 17 120 3.2 4.8 0.00 0.00 0.00 52 1016.4
20260508045026 17 119 1.6 6.4 0.00 0.00 0.00 53 1016.5
20260508044535 17 119 0.0 6.4 0.00 0.00 0.00 54 1016.5
20260508044027 17 119 3.2 6.4 0.00 0.00 0.00 53 1016.3
20260508043526 17 102 1.6 4.8 0.00 0.00 0.00 54 1016.2
20260508043044 17 101 0.0 4.8 0.00 0.00 0.00 54 1016.1
20260508042529 17 0 0.0 6.4 0.00 0.00 0.00 55 1015.9
20260508042026 17 0 1.6 6.4 0.00 0.00 0.00 54 1015.9
20260508041537 17 81 1.6 4.8 0.00 0.00 0.00 54 1015.7
20260508041027 17 0 0.0 3.2 0.00 0.00 0.00 55 1015.7
20260508040528 17 79 0.0 6.4 0.00 0.00 0.00 54 1015.8
20260508040042 17 80 0.0 6.4 0.00 0.00 0.00 55 1015.4
20260508035530 17 78 1.6 4.8 0.00 0.00 0.00 55 1015.4
20260508035026 17 0 1.6 3.2 0.00 0.00 0.00 55 1015.4
20260508034536 17 79 0.0 3.2 0.00 0.00 0.00 55 1015.4
20260508034026 17 0 0.0 4.8 0.00 0.00 0.00 55 1015.4
20260508033526 17 80 1.6 4.8 0.00 0.00 0.00 54 1015.3
20260508033035 17 79 0.0 3.2 0.00 0.00 0.00 56 1015.4
20260508032527 17 0 0.0 4.8 0.00 0.00 0.00 55 1015.5
20260508032025 17 0 0.0 6.4 0.00 0.00 0.00 56 1015.4
20260508031537 17 78 3.2 6.4 0.00 0.00 0.00 55 1015.5
20260508031026 17 38 3.2 4.8 0.00 0.00 0.00 58 1015.2
20260508030527 17 34 1.6 3.2 0.00 0.00 0.00 58 1015.3
20260508030035 17 0 0.0 3.2 0.00 0.00 0.00 58 1015.4
20260508025527 17 36 0.0 4.8 0.00 0.00 0.00 58 1015.5
20260508025029 17 0 0.0 4.8 0.00 0.00 0.00 57 1015.3
20260508024535 17 35 0.0 4.8 0.00 0.00 0.00 58 1015.3
20260508024026 17 0 0.0 0.0 0.00 0.00 0.00 59 1015.5
20260508023527 17 0 0.0 0.0 0.00 0.00 0.00 61 1015.6
20260508023035 17 0 0.0 3.2 0.00 0.00 0.00 60 1015.6
20260508022526 17 0 0.0 4.8 0.00 0.00 0.00 60 1015.5
20260508022026 17 332 1.6 4.8 0.00 0.00 0.00 61 1015.6
20260508021542 17 330 0.0 3.2 0.00 0.00 0.00 62 1015.6
20260508021030 17 0 0.0 1.6 0.00 0.00 0.00 62 1015.5
20260508020526 17 0 0.0 1.6 0.00 0.00 0.00 62 1015.5
20260508020037 17 0 0.0 4.8 0.00 0.00 0.00 62 1015.5
20260508015527 17 329 0.0 4.8 0.00 0.00 0.00 62 1015.5
20260508015028 17 329 1.6 4.8 0.00 0.00 0.00 62 1015.5
20260508014533 17 0 0.0 3.2 0.00 0.00 0.00 62 1015.6
20260508014026 17 0 0.0 3.2 0.00 0.00 0.00 62 1015.7
20260508013526 17 325 1.6 3.2 0.00 0.00 0.00 62 1015.6
20260508013033 17 325 0.0 3.2 0.00 0.00 0.00 62 1015.7
20260508012526 17 0 0.0 1.6 0.00 0.00 0.00 62 1015.8
20260508012026 17 0 0.0 1.6 0.00 0.00 0.00 62 1015.8
20260508011543 17 0 0.0 0.0 0.00 0.00 0.00 62 1016.0
20260508011026 17 0 0.0 1.6 0.00 0.00 0.00 62 1016.0
20260508010526 17 0 0.0 1.6 0.00 0.00 0.00 61 1016.0
20260508010041 17 0 0.0 0.0 0.00 0.00 0.00 62 1016.1
20260508005526 17 0 0.0 0.0 0.00 0.00 0.00 62 1016.1
20260508005026 17 0 0.0 3.2 0.00 0.00 0.00 62 1016.1
20260508004540 17 0 0.0 3.2 0.00 0.00 0.00 62 1016.1
20260508004026 17 325 0.0 4.8 0.00 0.00 0.00 62 1016.1
20260508003526 17 0 0.0 4.8 0.00 0.00 0.00 62 1016.1
20260508003042 17 325 0.0 4.8 0.00 0.00 0.00 62 1016.1
20260508002526 17 325 1.6 4.8 0.00 0.00 0.00 62 1016.2
20260508002026 17 0 0.0 3.2 0.00 0.00 0.00 61 1016.1
20260508001537 17 322 0.0 4.8 0.00 0.00 0.00 61 1016.2
20260508001026 17 322 1.6 4.8 0.00 0.00 0.00 61 1016.1
20260508000530 17 0 0.0 4.8 0.00 0.00 0.00 60 1016.2
20260508000053 17 0 0.0 4.8 0.00 0.00 0.00 59 1016.3
20260507235526 17 321 1.6 4.8 0.00 0.00 0.00 59 1016.3
20260507235026 17 320 0.0 3.2 0.00 0.00 0.00 58 1016.3
20260507234543 17 0 0.0 0.0 0.00 0.00 0.00 58 1016.5
20260507234027 17 0 0.0 1.6 0.00 0.00 0.00 57 1016.7
20260507233529 17 0 0.0 3.2 0.00 0.00 0.00 56 1016.8
20260507233037 17 0 0.0 3.2 0.00 0.00 0.00 56 1016.7
20260507232524 17 0 0.0 4.8 0.00 0.00 0.00 54 1016.7
20260507232025 17 0 1.6 4.8 0.00 0.00 0.00 54 1016.8
20260507231537 17 0 0.0 0.0 0.00 0.00 0.00 52 1016.7
20260507231026 17 0 0.0 0.0 0.00 0.00 0.00 51 1016.6
20260507230528 17 0 0.0 0.0 0.00 0.00 0.00 51 1016.6
20260507230038 17 0 0.0 0.0 0.00 0.00 0.00 51 1016.8
20260507225526 17 0 0.0 0.0 0.00 0.00 0.00 51 1016.8
20260507225026 17 0 0.0 3.2 0.00 0.00 0.00 52 1016.9
20260507224535 17 0 0.0 3.2 0.00 0.00 0.00 51 1017.0
20260507224030 17 319 0.0 4.8 0.00 0.00 0.00 52 1016.9
20260507223529 17 0 0.0 4.8 0.00 0.00 0.00 52 1017.0
20260507223040 17 319 0.0 4.8 0.00 0.00 0.00 52 1017.0
20260507222526 17 319 1.6 4.8 0.00 0.00 0.00 52 1017.0
20260507222025 17 313 1.6 6.4 0.00 0.00 0.00 52 1017.0
20260507221534 18 313 3.2 6.4 0.00 0.00 0.00 51 1017.1
20260507221025 18 0 0.0 3.2 0.00 0.00 0.00 52 1017.1
20260507220527 18 0 0.0 4.8 0.00 0.00 0.00 52 1017.2
20260507220033 18 312 0.0 4.8 0.00 0.00 0.00 52 1017.2
20260507215526 18 311 0.0 3.2 0.00 0.00 0.00 51 1017.3
20260507215025 18 0 0.0 3.2 0.00 0.00 0.00 51 1017.4
20260507214539 18 0 0.0 4.8 0.00 0.00 0.00 51 1017.5
20260507214026 18 0 1.6 4.8 0.00 0.00 0.00 51 1017.5
20260507213529 18 311 0.0 3.2 0.00 0.00 0.00 51 1017.4
20260507213040 18 0 1.6 3.2 0.00 0.00 0.00 49 1017.4
20260507212526 18 0 0.0 1.6 0.00 0.00 0.00 51 1017.6
20260507212028 18 0 0.0 1.6 0.00 0.00 0.00 51 1017.7
20260507211547 18 0 0.0 1.6 0.00 0.00 0.00 51 1017.6
20260507211025 18 0 0.0 1.6 0.00 0.00 0.00 50 1017.5
20260507210526 18 0 0.0 1.6 0.00 0.00 0.00 49 1017.6
20260507210038 18 0 0.0 0.0 0.00 0.00 0.00 49 1017.5
20260507205523 18 0 0.0 0.0 0.00 0.00 0.00 49 1017.5
20260507205022 18 0 0.0 1.6 0.00 0.00 0.00 49 1017.5
20260507204535 18 0 0.0 3.2 0.00 0.00 0.00 49 1017.5
20260507204026 18 311 0.0 3.2 0.00 0.00 0.00 49 1017.6
20260507203526 18 313 0.0 3.2 0.00 0.00 0.00 49 1017.6
20260507203036 18 0 0.0 3.2 0.00 0.00 0.00 49 1017.6
20260507202526 18 0 0.0 3.2 0.00 0.00 0.00 49 1017.5
20260507202026 18 313 0.0 3.2 0.00 0.00 0.00 49 1017.6
20260507201535 18 0 0.0 4.8 0.00 0.00 0.00 48 1017.6
20260507201026 18 314 0.0 4.8 0.00 0.00 0.00 48 1017.5
20260507200525 18 0 0.0 3.2 0.00 0.00 0.00 48 1017.3
20260507200041 18 315 0.0 1.6 0.00 0.00 0.00 48 1017.4
20260507195526 18 28 0.0 4.8 0.00 0.00 0.00 48 1017.3
20260507195026 18 0 0.0 6.4 0.00 0.00 0.00 49 1017.4
20260507194539 18 28 1.6 6.4 0.00 0.00 0.00 48 1017.3
20260507194025 18 27 3.2 6.4 0.00 0.00 0.00 47 1017.2
20260507193522 18 360 1.6 4.8 0.00 0.00 0.00 47 1017.2
20260507193037 18 0 0.0 0.0 0.00 0.00 0.00 48 1017.2
20260507192523 18 0 0.0 0.0 0.00 0.00 0.00 48 1017.2
20260507192022 18 0 0.0 1.6 0.00 0.00 0.00 48 1017.2
20260507191533 18 0 0.0 4.8 0.00 0.00 0.00 47 1017.2
20260507191025 18 360 0.0 4.8 0.00 0.00 0.00 47 1017.2
20260507190524 18 360 1.6 6.4 0.00 0.00 0.00 46 1017.1
20260507190038 18 360 3.2 6.4 0.00 0.00 0.00 46 1017.2
20260507185527 18 360 1.6 6.4 0.00 0.00 0.00 47 1017.3
20260507185027 18 360 1.6 6.4 0.00 0.00 0.00 49 1017.4
20260507184541 18 360 3.2 6.4 0.00 0.00 0.00 49 1017.3
20260507184029 19 13 1.6 4.8 0.00 0.00 0.00 48 1017.2
20260507183525 19 0 0.0 3.2 0.00 0.00 0.00 48 1017.1
20260507183036 19 15 0.0 4.8 0.00 0.00 0.00 48 1017.0
20260507182523 19 15 0.0 4.8 0.00 0.00 0.00 47 1017.0
20260507182026 19 0 0.0 4.8 0.00 0.00 0.00 47 1017.1
20260507181533 19 0 1.6 6.4 0.00 0.00 0.00 48 1017.0
20260507181026 19 0 0.0 6.4 0.00 0.00 0.00 48 1017.0
20260507180528 19 13 1.6 6.4 0.00 0.00 0.00 48 1017.0
20260507180033 19 294 0.0 3.2 0.00 0.00 0.00 48 1017.0
20260507175527 19 0 0.0 6.4 0.00 0.00 0.00 47 1017.1
20260507175027 19 293 1.6 6.4 0.00 0.00 0.00 49 1017.0
20260507174546 19 282 1.6 4.8 0.00 0.00 0.00 49 1016.8
20260507174027 19 281 3.2 6.4 0.00 0.00 0.00 49 1016.8
20260507173529 19 0 0.0 6.4 0.00 0.00 0.00 50 1017.0
20260507173040 19 278 3.2 6.4 0.00 0.00 0.00 50 1016.9
20260507172526 19 277 1.6 11.3 0.00 0.00 0.00 49 1016.8
20260507172027 19 0 3.2 11.3 0.00 0.00 0.00 49 1016.9
20260507171550 19 268 4.8 12.9 0.00 0.00 0.00 50 1016.8
20260507171028 20 278 6.4 12.9 0.00 0.00 0.00 50 1016.7
20260507170528 20 254 4.8 9.7 0.00 0.00 0.00 50 1016.6
20260507170035 20 229 4.8 9.7 0.00 0.00 0.00 48 1016.3
20260507165528 20 109 0.0 12.9 0.00 0.00 0.00 47 1016.2
20260507165027 20 109 4.8 19.3 0.00 0.00 0.00 48 1016.1
20260507164538 20 69 8.0 19.3 0.00 0.00 0.00 51 1016.0
20260507164028 20 85 8.0 19.3 0.00 0.00 0.00 51 1016.2
20260507163528 20 92 6.4 17.7 0.00 0.00 0.00 49 1016.3
20260507163033 20 85 4.8 12.9 0.00 0.00 0.00 47 1016.3
20260507162527 20 360 4.8 12.9 0.00 0.00 0.00 45 1016.5
20260507162027 21 360 3.2 12.9 0.00 0.00 0.00 43 1016.6
20260507161545 21 360 6.4 12.9 0.00 0.00 0.00 41 1016.5
20260507161028 21 360 1.6 4.8 0.00 0.00 0.00 36 1016.5
20260507160527 21 0 0.0 4.8 0.00 0.00 0.00 34 1016.5
20260507160059 22 360 0.0 6.4 0.00 0.00 0.00 29 1016.4
20260507155527 22 214 1.6 12.9 0.00 0.00 0.00 30 1016.5
20260507155028 22 0 3.2 16.1 0.00 0.00 0.00 29 1016.6
20260507154536 22 360 6.4 19.3 0.00 0.00 0.00 29 1016.6
20260507154028 22 247 6.4 19.3 0.00 0.00 0.00 29 1016.7
20260507153527 22 229 6.4 17.7 0.00 0.00 0.00 29 1016.6
20260507153036 22 267 11.3 19.3 0.00 0.00 0.00 30 1016.7
20260507152527 22 243 9.7 22.5 0.00 0.00 0.00 30 1016.8
20260507152028 22 215 11.3 22.5 0.00 0.00 0.00 30 1016.8
20260507151535 22 223 9.7 20.9 0.00 0.00 0.00 31 1016.7
20260507151027 22 249 11.3 20.9 0.00 0.00 0.00 30 1016.7
20260507150530 23 252 8.0 17.7 0.00 0.00 0.00 30 1016.7
20260507150039 22 254 9.7 20.9 0.00 0.00 0.00 30 1016.7
20260507145528 22 256 8.0 24.1 0.00 0.00 0.00 31 1016.6
20260507145031 22 233 9.7 24.1 0.00 0.00 0.00 30 1016.7
20260507144537 22 240 16.1 22.5 0.00 0.00 0.00 29 1016.8
20260507144028 23 252 9.7 22.5 0.00 0.00 0.00 30 1016.6
20260507143528 23 241 9.7 20.9 0.00 0.00 0.00 29 1016.7
20260507143042 23 263 11.3 19.3 0.00 0.00 0.00 31 1016.6
20260507142528 23 243 9.7 22.5 0.00 0.00 0.00 31 1016.7
20260507142031 23 211 11.3 24.1 0.00 0.00 0.00 31 1016.8
20260507141542 23 248 11.3 24.1 0.00 0.00 0.00 30 1016.7
20260507141027 23 269 11.3 24.1 0.00 0.00 0.00 29 1016.6
20260507140527 23 265 9.7 27.4 0.00 0.00 0.00 29 1016.4
20260507140046 23 231 14.5 27.4 0.00 0.00 0.00 28 1016.2
20260507135528 24 262 6.4 25.7 0.00 0.00 0.00 28 1016.3
20260507135030 24 259 12.9 25.7 0.00 0.00 0.00 28 1016.2
20260507134536 24 261 8.0 20.9 0.00 0.00 0.00 29 1016.1
20260507134027 24 238 11.3 20.9 0.00 0.00 0.00 27 1016.1
20260507133527 24 257 9.7 17.7 0.00 0.00 0.00 26 1016.0
20260507133034 24 244 4.8 17.7 0.00 0.00 0.00 26 1016.1
20260507132527 24 253 6.4 17.7 0.00 0.00 0.00 26 1016.2
20260507132028 24 262 9.7 17.7 0.00 0.00 0.00 26 1016.0
20260507131605 24 235 6.4 17.7 0.00 0.00 0.00 24 1016.1
20260507131028 23 219 9.7 17.7 0.00 0.00 0.00 29 1016.3
20260507130528 23 266 8.0 17.7 0.00 0.00 0.00 30 1016.2
20260507130035 23 260 8.0 17.7 0.00 0.00 0.00 32 1016.4
20260507125528 23 252 8.0 19.3 0.00 0.00 0.00 32 1016.5
20260507125028 23 241 11.3 19.3 0.00 0.00 0.00 32 1016.6
20260507124550 23 259 8.0 19.3 0.00 0.00 0.00 32 1016.7
20260507124027 23 253 11.3 20.9 0.00 0.00 0.00 31 1016.7
20260507123527 23 272 11.3 20.9 0.00 0.00 0.00 29 1016.8
20260507123041 23 229 8.0 20.9 0.00 0.00 0.00 31 1016.7
20260507122527 23 224 8.0 20.9 0.00 0.00 0.00 31 1016.8
20260507122027 23 240 12.9 24.1 0.00 0.00 0.00 29 1016.9
20260507121536 24 223 12.9 24.1 0.00 0.00 0.00 27 1016.9
20260507121028 24 231 12.9 24.1 0.00 0.00 0.00 25 1017.0
20260507120529 25 213 11.3 22.5 0.00 0.00 0.00 26 1017.0
20260507120040 25 221 9.7 20.9 0.00 0.00 0.00 28 1016.8
20260507115627 25 254 8.0 22.5 0.00 0.00 0.00 25 1016.8
20260507115027 24 240 14.5 22.5 0.00 0.00 0.00 28 1016.8
20260507114539 24 265 12.9 24.1 0.00 0.00 0.00 29 1017.0
20260507114028 23 263 9.7 24.1 0.00 0.00 0.00 35 1017.0
20260507113528 23 243 14.5 24.1 0.00 0.00 0.00 33 1017.0
20260507113102 24 255 11.3 29.0 0.00 0.00 0.00 37 1017.0
20260507112530 24 205 16.1 29.0 0.00 0.00 0.00 34 1017.0
20260507112027 25 244 11.3 32.2 0.00 0.00 0.00 36 1017.1
20260507111536 25 220 9.7 32.2 0.00 0.00 0.00 31 1017.1
20260507111027 25 223 11.3 25.7 0.00 0.00 0.00 28 1017.1
20260507110527 23 268 12.9 25.7 0.00 0.00 0.00 38 1016.8
20260507110044 24 225 14.5 25.7 0.00 0.00 0.00 35 1017.0
20260507105527 25 236 12.9 24.1 0.00 0.00 0.00 32 1017.2
20260507105027 24 264 9.7 27.4 0.00 0.00 0.00 33 1017.1
20260507104556 23 246 17.7 27.4 0.00 0.00 0.00 33 1017.0
20260507104027 24 236 11.3 22.5 0.00 0.00 0.00 40 1016.9
20260507103526 23 240 11.3 20.9 0.00 0.00 0.00 43 1016.7
20260507103040 23 220 8.0 19.3 0.00 0.00 0.00 45 1016.6
20260507102530 23 247 8.0 19.3 0.00 0.00 0.00 47 1016.5
20260507102027 23 249 11.3 19.3 0.00 0.00 0.00 49 1016.6
20260507101536 23 269 6.4 19.3 0.00 0.00 0.00 51 1016.7
20260507101026 23 259 6.4 19.3 0.00 0.00 0.00 52 1016.7
20260507100526 23 250 9.7 19.3 0.00 0.00 0.00 53 1016.7
20260507100043 23 290 9.7 19.3 0.00 0.00 0.00 53 1016.8
20260507095527 23 217 6.4 17.7 0.00 0.00 0.00 53 1016.8
20260507095030 23 247 8.0 19.3 0.00 0.00 0.00 53 1016.8
20260507094537 23 277 8.0 19.3 0.00 0.00 0.00 53 1016.8
20260507094028 23 222 8.0 17.7 0.00 0.00 0.00 53 1016.7
20260507093527 23 218 4.8 16.1 0.00 0.00 0.00 51 1016.8
20260507093038 23 213 8.0 16.1 0.00 0.00 0.00 48 1016.8
20260507092527 23 300 3.2 16.1 0.00 0.00 0.00 47 1016.7
20260507092027 23 231 6.4 16.1 0.00 0.00 0.00 48 1016.7
20260507091543 23 271 9.7 17.7 0.00 0.00 0.00 48 1016.8
20260507091027 23 244 9.7 17.7 0.00 0.00 0.00 47 1016.8
20260507090527 23 236 8.0 16.1 0.00 0.00 0.00 47 1016.6
20260507090040 23 253 3.2 9.7 0.00 0.00 0.00 45 1016.6
20260507085526 23 196 3.2 9.7 0.00 0.00 0.00 45 1016.7
20260507085027 22 198 0.0 9.7 0.00 0.00 0.00 47 1016.7
20260507084549 23 216 3.2 9.7 0.00 0.00 0.00 46 1016.8
20260507084027 22 238 1.6 8.0 0.00 0.00 0.00 47 1016.8
20260507083527 22 220 1.6 8.0 0.00 0.00 0.00 46 1016.7
20260507083036 22 248 3.2 9.7 0.00 0.00 0.00 47 1016.7
20260507082528 22 281 1.6 9.7 0.00 0.00 0.00 47 1016.7
20260507082027 22 259 1.6 14.5 0.00 0.00 0.00 47 1016.7
20260507081539 22 279 4.8 14.5 0.00 0.00 0.00 48 1016.7
20260507081027 22 272 8.0 14.5 0.00 0.00 0.00 48 1016.7
20260507080526 22 261 4.8 11.3 0.00 0.00 0.00 48 1016.8
20260507080040 22 222 4.8 9.7 0.00 0.00 0.00 47 1016.7
20260507075527 22 232 1.6 11.3 0.00 0.00 0.00 47 1016.7
20260507075027 21 241 4.8 11.3 0.00 0.00 0.00 46 1016.7
20260507074541 22 0 0.0 6.4 0.00 0.00 0.00 46 1016.6
20260507074026 21 262 1.6 6.4 0.00 0.00 0.00 47 1016.6
20260507073526 21 265 1.6 9.7 0.00 0.00 0.00 48 1016.6
20260507073037 21 265 3.2 9.7 0.00 0.00 0.00 48 1016.4
20260507072527 21 262 1.6 6.4 0.00 0.00 0.00 49 1016.4
20260507072026 21 286 1.6 6.4 0.00 0.00 0.00 50 1016.4
20260507071537 21 280 0.0 6.4 0.00 0.00 0.00 48 1016.5
20260507071027 21 276 1.6 6.4 0.00 0.00 0.00 51 1016.7
20260507070527 20 0 0.0 6.4 0.00 0.00 0.00 51 1016.6
20260507070033 20 268 1.6 9.7 0.00 0.00 0.00 51 1016.6
20260507065527 20 269 4.8 9.7 0.00 0.00 0.00 51 1016.7
20260507065027 21 227 1.6 6.4 0.00 0.00 0.00 50 1016.7
20260507064546 21 235 1.6 9.7 0.00 0.00 0.00 49 1016.7
20260507064027 20 242 3.2 9.7 0.00 0.00 0.00 50 1016.5